[[{"header":{"parameterUnit":"m.s-1","parameterCategory":1,"la1":30.2991,"la2":30.254,"lo1":-89.0895,"lo2":-89.0444,"dy":0.0017,"dx":0.0017,"nx":28,"ny":28,"refTime":"2025-02-25T09:00:00:Z","depth":0,"parameterNumber":2,"parameterNumberName":"U-component_of_WINDS"},"data":[0,0,0,0,0,0,0,0,0,0,0,0,0,0,0,0,0,0,0,0,0,0,0,0,0,0,0,0,0,0,0,0,0,0,0,0,0,0,0,0,0,0,0,0,0,0,0,0,0,0,0,0,0,0,0,0,0,0,1.9776,1.9777,0,1.9882,1.9883,1.9885,1.9842,1.9839,1.9837,1.9835,1.9951,1.9956,1.9962,0,0,0,0,0,0,0,0,0,0,0,0,0,1.9543,1.9547,1.9776,1.9777,1.9778,1.9882,1.9883,1.9885,1.9842,1.9839,1.9836,1.9833,1.9949,1.9956,1.9962,0,0,0,0,0,0,0,0,0,0,0,0,0,1.9646,1.9549,1.9776,1.9769,1.977,1.9882,1.9884,1.9885,1.9843,1.9839,1.9835,1.9832,1.9947,1.9955,1.9963,2.0089,0,0,1.9988,1.9992,0,0,0,0,0,0,0,0,1.964,1.9655,1.9769,1.977,1.9771,1.9845,1.9844,1.9954,1.9844,1.9816,1.9834,1.983,1.9919,1.9929,1.9958,2.0095,2.01,1.9989,1.9994,1.9997,2.0,0,0,0,0,0,0,0,1.9633,1.965,1.9818,1.9771,1.9772,1.9764,1.9774,1.9865,1.9888,1.9818,1.9815,1.9828,1.9919,1.995,1.996,2.0102,1.9989,1.9996,2.0001,2.0004,2.0349,2.0353,0,0,0,0,0,0,1.9625,1.9644,1.9815,1.9821,1.9695,1.9771,1.9783,1.9825,1.9886,1.9892,1.9831,1.9825,1.9938,1.9951,1.9964,2.0117,1.9997,2.0005,2.001,2.0345,2.035,2.0354,0,0,0,0,0,0,1.962,1.964,1.981,1.9732,1.9753,1.9779,1.9827,1.9829,1.986,1.9896,1.9901,1.9858,1.9936,1.9953,2.0058,2.0121,2.0009,2.0016,2.034,2.0346,2.0352,2.0423,0,0,0,0,0,0,1.9613,1.9639,1.9686,1.9733,1.9757,1.9901,1.9831,1.9834,1.9873,1.9867,1.9923,1.9929,1.9934,2.0046,2.0066,2.013,2.0022,2.0334,2.0342,2.035,2.0415,2.0431,2.0445,0,0,0,0,0,1.9605,1.9703,1.9688,1.9709,1.9816,1.9904,1.9918,1.992,1.9879,1.9927,1.995,1.9927,2.011,2.0058,2.008,2.0147,2.033,2.034,2.0349,2.0409,2.0428,2.0444,0,0,0,0,0,0,1.9664,1.9709,1.9693,1.9808,1.9853,1.9897,1.9958,1.9941,2.0,1.9992,1.9994,2.0007,2.0116,2.0142,2.0082,2.0273,2.0214,2.0229,2.0252,2.027,2.0285,2.0277,2.0029,0,0,0,0,0,1.969,1.9756,1.9792,1.9891,1.9914,1.9932,1.9971,1.9968,2.0015,2.0034,2.0065,2.0114,2.0182,2.0228,2.0292,2.0418,2.0431,2.0475,2.049,2.0502,2.0515,2.0585,2.0605,2.0386,2.0386,2.0385,0,0,1.9746,1.9778,1.982,1.9904,1.9937,2.0008,1.9948,2.0025,2.0078,2.0047,2.0148,2.0172,2.0227,2.0343,2.0396,2.0368,2.0578,2.0514,2.0523,2.053,2.0597,2.0618,2.0636,2.0392,2.0391,2.039,0,0,1.9883,1.9913,1.9999,2.0033,2.0084,2.0096,2.0116,2.0163,2.0178,2.0278,2.0257,2.0321,2.0438,2.0478,2.0514,2.0666,2.0647,2.0687,2.0764,2.0832,2.0849,2.0865,2.092,2.094,2.0699,2.07,2.07,0,1.9946,2.0049,2.0046,2.0124,2.0162,2.0134,2.0223,2.0257,2.0328,2.0356,2.0323,2.047,2.0505,2.0631,2.0667,2.0697,2.0722,2.0681,2.0847,2.0862,2.0877,2.093,2.095,2.0704,2.0704,2.0703,2.0703,0,2.0125,2.0196,2.026,2.0326,2.0372,2.0455,2.0466,2.0513,2.0507,2.0522,2.0626,2.0666,2.0739,2.0769,2.0764,2.0895,2.0876,2.0845,2.0787,2.0902,2.0952,2.0972,2.0711,2.0709,2.0708,2.0707,0,0,2.0303,2.0366,2.0389,2.0419,2.0474,2.053,2.0613,2.0682,2.0723,2.0772,2.0843,2.0943,2.0914,2.0955,2.0955,2.1014,2.1133,2.0976,2.0977,2.1005,2.1281,2.1305,2.1329,2.112,2.1124,2.1127,2.1277,0,2.0445,2.0587,2.0587,2.0719,2.0787,2.0761,2.0833,2.0876,2.0892,2.0954,2.0973,2.1044,2.1,2.1025,2.1082,2.1106,2.1189,2.1095,2.1189,2.1192,2.1177,2.1355,2.1381,2.152,2.1297,2.13,2.1302,0,2.0631,2.0684,2.0822,2.0867,2.0895,2.096,2.1023,2.1081,2.113,2.1138,2.1182,2.1173,2.1259,2.1197,2.1317,2.1254,2.1292,2.131,2.1315,2.1325,2.1255,2.1371,2.1564,2.1586,2.1333,2.133,2.1328,0,2.0749,2.0856,2.0952,2.0979,2.1033,2.1079,2.1104,2.1148,2.1189,2.1246,2.1273,2.1339,2.1376,2.1429,2.1438,2.1392,2.156,2.1498,2.1571,2.1571,2.1609,2.1607,2.1813,2.1631,2.1631,2.1631,2.163,0,2.0909,2.0995,2.1006,2.1066,2.1162,2.1161,2.1258,2.1279,2.1319,2.1384,2.1366,2.1428,2.1436,2.1501,2.1509,2.1608,2.1625,2.1636,2.1637,2.1638,2.1637,2.1665,2.1656,2.1636,2.1635,2.1634,2.1633,0,2.1058,2.1068,2.1172,2.1214,2.1227,2.1296,2.1333,2.1391,2.1405,2.1488,2.1508,2.1532,2.1607,2.1621,2.1711,2.1716,2.1835,2.1826,2.1818,2.1818,2.1891,2.1884,2.2123,2.2155,2.1951,2.1953,2.1954,0,2.116,2.1226,2.1274,2.1315,2.1341,2.1408,2.145,2.1452,2.1497,2.1556,2.1608,2.168,2.1739,2.1861,2.1888,2.1957,2.195,2.2029,2.1961,2.196,2.1954,2.195,2.1957,2.2043,2.2045,2.2047,2.2048,0,2.1341,2.1343,2.1402,2.1464,2.1513,2.1563,2.1609,2.1645,2.1653,2.1705,2.178,2.1825,2.1915,2.1989,2.2057,2.2086,2.207,2.2069,2.209,2.2093,2.2086,2.2092,2.1856,2.2064,2.2063,2.2062,2.2061,2.206,2.1471,2.1528,2.1571,2.1638,2.1672,2.1716,2.1773,2.1793,2.1856,2.1928,2.1925,2.2009,2.2056,2.2146,2.2178,2.2245,2.2221,2.2251,2.2258,2.2266,2.2274,2.2074,2.2258,2.2257,2.2257,2.2256,2.2256,0,2.1652,2.1678,2.1739,2.1804,2.1857,2.1834,2.1884,2.1931,2.2004,2.2048,2.2105,2.2193,2.2264,2.2295,2.2366,2.2413,2.2408,2.2432,2.243,2.2437,2.2291,2.2267,2.2435,2.2435,2.2435,2.2435,2.2435,2.2435,2.1753,2.1849,2.1855,2.1969,2.1994,2.2074,2.2105,2.2146,2.2181,2.2278,2.2336,2.2355,2.2395,2.2468,2.2533,2.2541,2.2568,2.2596,2.2601,2.2465,2.2447,2.243,2.2407,2.2602,2.2602,2.2741,2.2742,2.2743]},{"header":{"parameterUnit":"m.s-1","parameterCategory":1,"la1":30.2991,"la2":30.254,"lo1":-89.0895,"lo2":-89.0444,"dy":0.0017,"dx":0.0017,"nx":28,"ny":28,"refTime":"2025-02-25T09:00:00:Z","depth":0,"parameterNumber":3,"parameterNumberName":"V-component_of_WINDS"},"data":[0,0,0,0,0,0,0,0,0,0,0,0,0,0,0,0,0,0,0,0,0,0,0,0,0,0,0,0,0,0,0,0,0,0,0,0,0,0,0,0,0,0,0,0,0,0,0,0,0,0,0,0,0,0,0,0,0,0,0.2304,0.2304,0,0.2266,0.2265,0.2265,0.2219,0.2219,0.2218,0.2217,0.2177,0.2176,0.2176,0,0,0,0,0,0,0,0,0,0,0,0,0,0.2334,0.2334,0.2304,0.2304,0.2303,0.2266,0.2265,0.2265,0.222,0.2219,0.2218,0.2217,0.2177,0.2176,0.2176,0,0,0,0,0,0,0,0,0,0,0,0,0,0.2311,0.2334,0.2304,0.2276,0.2273,0.2266,0.2265,0.2265,0.222,0.2219,0.2218,0.2217,0.2177,0.2176,0.2176,0.2193,0,0,0.2174,0.2173,0,0,0,0,0,0,0,0,0.2312,0.231,0.2281,0.2278,0.2275,0.2246,0.2261,0.224,0.222,0.224,0.2217,0.2216,0.2201,0.2198,0.2193,0.2191,0.2189,0.2174,0.2173,0.2173,0.2173,0,0,0,0,0,0,0,0.2314,0.2311,0.2289,0.228,0.2277,0.2264,0.226,0.2257,0.2227,0.2238,0.2235,0.2231,0.2199,0.2194,0.2192,0.2188,0.2174,0.2173,0.2173,0.2172,0.2193,0.2194,0,0,0,0,0,0,0.232,0.2313,0.229,0.2288,0.2291,0.2264,0.2259,0.2257,0.2226,0.2221,0.2232,0.2229,0.2195,0.2193,0.219,0.2205,0.2173,0.2172,0.2172,0.2192,0.2193,0.2194,0,0,0,0,0,0,0.2321,0.2319,0.2292,0.2299,0.2295,0.2265,0.2262,0.2256,0.2251,0.2222,0.2216,0.2233,0.2194,0.2191,0.2191,0.2203,0.2172,0.2172,0.2191,0.2193,0.2194,0.2236,0,0,0,0,0,0,0.2322,0.2319,0.2327,0.23,0.2295,0.2295,0.2263,0.2256,0.225,0.2246,0.2221,0.2216,0.2193,0.2193,0.2191,0.2201,0.2171,0.219,0.2192,0.2193,0.2234,0.2239,0.2244,0,0,0,0,0,0.2323,0.2341,0.2327,0.2325,0.2303,0.2296,0.2293,0.2267,0.2252,0.2258,0.2238,0.2216,0.2202,0.2193,0.2191,0.2201,0.2189,0.2191,0.2193,0.2232,0.2238,0.2244,0,0,0,0,0,0,0.237,0.2337,0.2321,0.2331,0.2317,0.2288,0.2295,0.2276,0.2265,0.2262,0.223,0.2224,0.2228,0.2215,0.2205,0.2214,0.2192,0.2194,0.2222,0.2228,0.2233,0.2235,0.217,0,0,0,0,0,0.2381,0.2379,0.235,0.2361,0.2354,0.2326,0.2322,0.2303,0.2287,0.228,0.2261,0.2245,0.2236,0.2232,0.2223,0.2232,0.2224,0.2237,0.2242,0.2247,0.2248,0.2248,0.2253,0.2201,0.2201,0.2201,0,0,0.2405,0.2386,0.2387,0.237,0.2356,0.2353,0.2321,0.232,0.2316,0.228,0.2278,0.2263,0.2243,0.2247,0.2248,0.2236,0.226,0.2249,0.2253,0.2252,0.2251,0.2256,0.226,0.2203,0.2202,0.2202,0,0,0.2445,0.2433,0.2439,0.2425,0.2405,0.2385,0.2387,0.2361,0.2349,0.2347,0.2319,0.2313,0.23,0.2286,0.2277,0.2308,0.2287,0.2306,0.2331,0.2332,0.2336,0.2339,0.2347,0.2351,0.2308,0.2308,0.2308,0,0.2477,0.2472,0.2444,0.2443,0.2435,0.2402,0.2406,0.2394,0.2372,0.2366,0.2354,0.2334,0.2318,0.2316,0.2324,0.2318,0.2317,0.2309,0.2338,0.2341,0.2343,0.2351,0.2354,0.231,0.231,0.231,0.231,0,0.251,0.2506,0.2513,0.2492,0.2484,0.2486,0.2457,0.2453,0.2434,0.2415,0.2411,0.2391,0.2375,0.2374,0.2356,0.2368,0.2361,0.2344,0.2321,0.2351,0.2357,0.236,0.2314,0.2313,0.2312,0.2312,0,0,0.258,0.2541,0.2544,0.2532,0.2506,0.2502,0.2501,0.2485,0.248,0.2465,0.2462,0.245,0.2432,0.2422,0.2402,0.2403,0.2424,0.2384,0.2383,0.239,0.2433,0.2445,0.2449,0.241,0.2411,0.2411,0.2434,0,0.2614,0.2611,0.2584,0.2588,0.2582,0.2549,0.2547,0.253,0.2511,0.2503,0.2482,0.2473,0.2452,0.2445,0.2444,0.2422,0.2432,0.242,0.2404,0.2404,0.2409,0.2453,0.2467,0.2489,0.2436,0.2437,0.2437,0,0.2654,0.264,0.2643,0.2613,0.261,0.2609,0.2591,0.2584,0.2562,0.2548,0.2535,0.2512,0.2506,0.2485,0.2476,0.2468,0.246,0.2447,0.2447,0.2444,0.2422,0.2448,0.2496,0.2499,0.2441,0.2441,0.2441,0,0.2701,0.2683,0.2682,0.2673,0.2639,0.2639,0.2625,0.2602,0.2593,0.2577,0.257,0.2553,0.2544,0.253,0.2502,0.249,0.2494,0.2472,0.2481,0.2481,0.2482,0.2483,0.2527,0.248,0.248,0.248,0.248,0,0.2741,0.2743,0.2702,0.2701,0.2702,0.267,0.2671,0.2654,0.2633,0.2626,0.2596,0.259,0.2554,0.2543,0.2521,0.2514,0.2511,0.2498,0.2492,0.25,0.2501,0.2493,0.249,0.2481,0.2481,0.2481,0.248,0,0.2794,0.2767,0.2762,0.273,0.2722,0.2723,0.2694,0.2691,0.267,0.2661,0.2657,0.2624,0.2609,0.258,0.2558,0.2542,0.254,0.253,0.2547,0.2543,0.2552,0.2551,0.2592,0.2595,0.2548,0.2549,0.2549,0,0.282,0.2821,0.2788,0.2781,0.2768,0.2758,0.2748,0.2717,0.2707,0.2681,0.268,0.2662,0.2647,0.2625,0.2597,0.2579,0.2567,0.2583,0.2564,0.2571,0.2564,0.2564,0.2563,0.2587,0.2587,0.2588,0.2588,0,0.2869,0.2855,0.2843,0.2824,0.2813,0.2798,0.278,0.2776,0.274,0.273,0.2715,0.2703,0.2679,0.2661,0.2638,0.2621,0.2598,0.2594,0.2595,0.2603,0.2611,0.2604,0.2556,0.2594,0.2593,0.2593,0.2592,0.2592,0.2908,0.2906,0.2881,0.2867,0.2851,0.2834,0.2828,0.2806,0.2792,0.277,0.2752,0.2737,0.2712,0.2678,0.2663,0.2649,0.2638,0.264,0.264,0.264,0.2642,0.2615,0.2645,0.2645,0.2645,0.2645,0.2644,0,0.2953,0.2935,0.2922,0.2898,0.2886,0.2866,0.2845,0.2836,0.2823,0.2802,0.2787,0.2767,0.2749,0.2719,0.2698,0.2693,0.2681,0.2688,0.2687,0.2683,0.2655,0.2655,0.2697,0.2697,0.2697,0.2697,0.2697,0.2697,0.2975,0.2969,0.2951,0.2936,0.2917,0.2903,0.2892,0.2875,0.2858,0.2837,0.2822,0.2803,0.2777,0.2753,0.2735,0.2726,0.2719,0.2729,0.2717,0.2691,0.2686,0.2681,0.2681,0.2728,0.2728,0.2746,0.2746,0.2746]}]]